Location: Belfast
(54.5830°N, 5.9330°W)
Time: 14:07:44
(UTC+01:00)

ISS - Pass Details

Date: 22 May 2017
Orbit: 402 x 408 km, 51.6° (Epoch: 26 May)

Event Time Altitude Azimuth Distance (km) Brightness Sun altitude
Exits shadow 02:39:18 - 258° (WSW) 1,579 -1.1 -13.1°
Reaches altitude 10° 02:39:34 10° 257° (WSW) 1,469 -1.3 -13.1°
Maximum altitude 02:42:47 51° 181° (S) 522 -3.7 -13.0°
Drops below altitude 10° 02:45:58 10° 105° (ESE) 1,465 -0.9 -12.8°
Sets 02:48:05 0° 100° (E) 2,323 0.2 -12.7°
